Year,Month,Day,Hour,Minute,Value (Times are PST for temperature in C)
2014,06,21,00,00,10.70
2014,06,21,00,01,10.70
2014,06,21,00,02,10.70
2014,06,21,00,03,10.70
2014,06,21,00,04,10.70
2014,06,21,00,05,10.60
2014,06,21,00,06,10.60
2014,06,21,00,07,10.60
2014,06,21,00,08,10.60
2014,06,21,00,09,10.60
2014,06,21,00,10,10.60
2014,06,21,00,11,10.50
2014,06,21,00,12,10.50
2014,06,21,00,13,10.50
2014,06,21,00,14,10.50
2014,06,21,00,15,10.40
2014,06,21,00,16,10.40
2014,06,21,00,17,10.40
2014,06,21,00,18,10.40
2014,06,21,00,19,10.40
2014,06,21,00,20,10.40
2014,06,21,00,21,10.30
2014,06,21,00,22,10.30
2014,06,21,00,23,10.30
2014,06,21,00,24,10.30
2014,06,21,00,25,10.30
2014,06,21,00,26,10.20
2014,06,21,00,27,10.20
2014,06,21,00,28,10.20
2014,06,21,00,29,10.20
2014,06,21,00,30,10.20
2014,06,21,00,31,10.10
2014,06,21,00,32,10.10
2014,06,21,00,33,10.10
2014,06,21,00,34,10.10
2014,06,21,00,35,10.10
2014,06,21,00,36,10.10
2014,06,21,00,37,10.00
2014,06,21,00,38,10.00
2014,06,21,00,39,10.00
2014,06,21,00,40,10.00
2014,06,21,00,41,10.00
2014,06,21,00,42,10.00
2014,06,21,00,43,9.90
2014,06,21,00,44,9.90
2014,06,21,00,45,9.90
2014,06,21,00,46,9.90
2014,06,21,00,47,9.90
2014,06,21,00,48,9.80
2014,06,21,00,49,9.80
2014,06,21,00,50,9.80
2014,06,21,00,51,9.80
2014,06,21,00,52,9.80
2014,06,21,00,53,9.70
2014,06,21,00,54,9.70
2014,06,21,00,55,9.70
2014,06,21,00,56,9.70
2014,06,21,00,57,9.60
2014,06,21,00,58,9.60
2014,06,21,00,59,9.60
2014,06,21,01,00,9.60
2014,06,21,01,01,9.50
2014,06,21,01,02,9.50
2014,06,21,01,03,9.50
2014,06,21,01,04,9.40
2014,06,21,01,05,9.40
2014,06,21,01,06,9.40
2014,06,21,01,07,9.40
2014,06,21,01,08,9.30
2014,06,21,01,09,9.30
2014,06,21,01,10,9.30
2014,06,21,01,11,9.30
2014,06,21,01,12,9.30
2014,06,21,01,13,9.20
2014,06,21,01,14,9.20
2014,06,21,01,15,9.20
2014,06,21,01,16,9.20
2014,06,21,01,17,9.20
2014,06,21,01,18,9.20
2014,06,21,01,19,9.20
2014,06,21,01,20,9.10
2014,06,21,01,21,9.10
2014,06,21,01,22,9.10
2014,06,21,01,23,9.10
2014,06,21,01,24,9.10
2014,06,21,01,25,9.10
2014,06,21,01,26,9.00
2014,06,21,01,27,9.00
2014,06,21,01,28,9.00
2014,06,21,01,29,9.00
2014,06,21,01,30,9.00
2014,06,21,01,31,8.90
2014,06,21,01,32,8.90
2014,06,21,01,33,8.90
2014,06,21,01,34,8.90
2014,06,21,01,35,8.90
2014,06,21,01,36,8.90
2014,06,21,01,37,8.90
2014,06,21,01,38,8.90
2014,06,21,01,39,8.80
2014,06,21,01,40,8.80
2014,06,21,01,41,8.80
2014,06,21,01,42,8.80
2014,06,21,01,43,8.80
2014,06,21,01,44,8.80
2014,06,21,01,45,8.80
2014,06,21,01,46,8.80
2014,06,21,01,47,8.80
2014,06,21,01,48,8.80
2014,06,21,01,49,8.80
2014,06,21,01,50,8.80
2014,06,21,01,51,8.80
2014,06,21,01,52,8.80
2014,06,21,01,53,8.80
2014,06,21,01,54,8.70
2014,06,21,01,55,8.70
2014,06,21,01,56,8.70
2014,06,21,01,57,8.70
2014,06,21,01,58,8.70
2014,06,21,01,59,8.70
2014,06,21,02,00,8.70
2014,06,21,02,01,8.70
2014,06,21,02,02,8.70
2014,06,21,02,03,8.70
2014,06,21,02,04,8.70
2014,06,21,02,05,8.60
2014,06,21,02,06,8.60
2014,06,21,02,07,8.60
2014,06,21,02,08,8.60
2014,06,21,02,09,8.60
2014,06,21,02,10,8.60
2014,06,21,02,11,8.60
2014,06,21,02,12,8.50
2014,06,21,02,13,8.50
2014,06,21,02,14,8.50
2014,06,21,02,15,8.40
2014,06,21,02,16,8.40
2014,06,21,02,17,8.40
2014,06,21,02,18,8.40
2014,06,21,02,19,8.40
2014,06,21,02,20,8.40
2014,06,21,02,21,8.40
2014,06,21,02,22,8.40
2014,06,21,02,23,8.30
2014,06,21,02,24,8.30
2014,06,21,02,25,8.30
2014,06,21,02,26,8.30
2014,06,21,02,27,8.30
2014,06,21,02,28,8.30
2014,06,21,02,29,8.30
2014,06,21,02,30,8.30
2014,06,21,02,31,8.20
2014,06,21,02,32,8.20
2014,06,21,02,33,8.20
2014,06,21,02,34,8.20
2014,06,21,02,35,8.20
2014,06,21,02,36,8.20
2014,06,21,02,37,8.10
2014,06,21,02,38,8.10
2014,06,21,02,39,8.10
2014,06,21,02,40,8.10
2014,06,21,02,41,8.10
2014,06,21,02,42,8.10
2014,06,21,02,43,8.10
2014,06,21,02,44,8.00
2014,06,21,02,45,8.00
2014,06,21,02,46,8.00
2014,06,21,02,47,7.90
2014,06,21,02,48,7.90
2014,06,21,02,49,7.90
2014,06,21,02,50,7.90
2014,06,21,02,51,7.90
2014,06,21,02,52,7.90
2014,06,21,02,53,7.90
2014,06,21,02,54,7.90
2014,06,21,02,55,7.90
2014,06,21,02,56,7.90
2014,06,21,02,57,7.90
2014,06,21,02,58,7.90
2014,06,21,02,59,7.90
2014,06,21,03,00,7.90
2014,06,21,03,01,7.90
2014,06,21,03,02,7.90
2014,06,21,03,06,7.80
2014,06,21,03,07,7.80
2014,06,21,03,08,7.80
2014,06,21,03,09,7.80
2014,06,21,03,10,7.80
2014,06,21,03,11,7.80
2014,06,21,03,12,7.80
2014,06,21,03,13,7.80
2014,06,21,03,14,7.70
2014,06,21,03,15,7.70
2014,06,21,03,16,7.70
2014,06,21,03,17,7.70
2014,06,21,03,18,7.70
2014,06,21,03,19,7.70
2014,06,21,03,20,7.70
2014,06,21,03,21,7.70
2014,06,21,03,22,7.70
2014,06,21,03,23,7.70
2014,06,21,03,24,7.70
2014,06,21,03,25,7.70
2014,06,21,03,26,7.70
2014,06,21,03,27,7.70
2014,06,21,03,28,7.60
2014,06,21,03,29,7.60
2014,06,21,03,30,7.60
2014,06,21,03,31,7.60
2014,06,21,03,32,7.60
2014,06,21,03,33,7.60
2014,06,21,03,34,7.60
2014,06,21,03,35,7.60
2014,06,21,03,36,7.60
2014,06,21,03,37,7.60
2014,06,21,03,38,7.50
2014,06,21,03,39,7.50
2014,06,21,03,40,7.50
2014,06,21,03,41,7.50
2014,06,21,03,42,7.50
2014,06,21,03,43,7.50
2014,06,21,03,44,7.40
2014,06,21,03,45,7.40
2014,06,21,03,46,7.40
2014,06,21,03,47,7.40
2014,06,21,03,48,7.40
2014,06,21,03,49,7.40
2014,06,21,03,50,7.40
2014,06,21,03,51,7.40
2014,06,21,03,52,7.40
2014,06,21,03,53,7.40
2014,06,21,03,54,7.30
2014,06,21,03,55,7.30
2014,06,21,03,56,7.30
2014,06,21,03,57,7.30
2014,06,21,03,58,7.30
2014,06,21,03,59,7.30
2014,06,21,04,00,7.30
2014,06,21,04,01,7.30
2014,06,21,04,02,7.30
2014,06,21,04,03,7.30
2014,06,21,04,04,7.30
2014,06,21,04,05,7.30
2014,06,21,04,06,7.30
2014,06,21,04,07,7.30
2014,06,21,04,08,7.30
2014,06,21,04,09,7.30
2014,06,21,04,10,7.30
2014,06,21,04,11,7.30
2014,06,21,04,12,7.30
2014,06,21,04,13,7.30
2014,06,21,04,14,7.30
2014,06,21,04,15,7.30
2014,06,21,04,16,7.20
2014,06,21,04,17,7.20
2014,06,21,04,18,7.20
2014,06,21,04,19,7.20
2014,06,21,04,20,7.20
2014,06,21,04,21,7.20
2014,06,21,04,22,7.20
2014,06,21,04,23,7.20
2014,06,21,04,24,7.20
2014,06,21,04,25,7.20
2014,06,21,04,26,7.20
2014,06,21,04,27,7.20
2014,06,21,04,28,7.20
2014,06,21,04,29,7.20
2014,06,21,04,30,7.20
2014,06,21,04,31,7.20
2014,06,21,04,32,7.20
2014,06,21,04,33,7.20
2014,06,21,04,34,7.10
2014,06,21,04,35,7.10
2014,06,21,04,36,7.10
2014,06,21,04,37,7.10
2014,06,21,04,38,7.10
2014,06,21,04,39,7.10
2014,06,21,04,40,7.10
2014,06,21,04,41,7.10
2014,06,21,04,42,7.00
2014,06,21,04,43,7.00
2014,06,21,04,44,7.00
2014,06,21,04,45,7.00
2014,06,21,04,46,7.00
2014,06,21,04,47,7.00
2014,06,21,04,48,7.00
2014,06,21,04,49,6.90
2014,06,21,04,50,6.90
2014,06,21,04,51,6.90
2014,06,21,04,52,6.90
2014,06,21,04,53,6.90
2014,06,21,04,54,6.90
2014,06,21,04,55,6.90
2014,06,21,04,56,6.80
2014,06,21,04,57,6.80
2014,06,21,04,58,6.80
2014,06,21,04,59,6.80
2014,06,21,05,00,6.80
2014,06,21,05,01,6.80
2014,06,21,05,02,6.80
2014,06,21,05,03,6.80
2014,06,21,05,04,6.80
2014,06,21,05,05,6.80
2014,06,21,05,06,6.80
2014,06,21,05,07,6.80
2014,06,21,05,08,6.80
2014,06,21,05,09,6.80
2014,06,21,05,10,6.80
2014,06,21,05,11,6.80
2014,06,21,05,12,6.70
2014,06,21,05,13,6.70
2014,06,21,05,14,6.70
2014,06,21,05,15,6.70
2014,06,21,05,16,6.70
2014,06,21,05,17,6.70
2014,06,21,05,18,6.70
2014,06,21,05,19,6.70
2014,06,21,05,20,6.70
2014,06,21,05,21,6.70
2014,06,21,05,22,6.70
2014,06,21,05,23,6.70
2014,06,21,05,24,6.70
2014,06,21,05,25,6.70
2014,06,21,05,26,6.70
2014,06,21,05,27,6.70
2014,06,21,05,28,6.70
2014,06,21,05,29,6.70
2014,06,21,05,30,6.70
2014,06,21,05,31,6.70
2014,06,21,05,32,6.60
2014,06,21,05,33,6.60
2014,06,21,05,34,6.60
2014,06,21,05,35,6.60
2014,06,21,05,36,6.60
2014,06,21,05,37,6.60
2014,06,21,05,38,6.60
2014,06,21,05,39,6.60
2014,06,21,05,40,6.60
2014,06,21,05,41,6.60
2014,06,21,05,42,6.60
2014,06,21,05,43,6.60
2014,06,21,05,44,6.60
2014,06,21,05,45,6.60
2014,06,21,05,46,6.60
2014,06,21,05,47,6.60
2014,06,21,05,48,6.60
2014,06,21,05,49,6.60
2014,06,21,05,50,6.60
2014,06,21,05,51,6.60
2014,06,21,05,52,6.60
2014,06,21,05,53,6.60
2014,06,21,05,54,6.60
2014,06,21,05,55,6.60
2014,06,21,05,56,6.60
2014,06,21,05,57,6.60
2014,06,21,05,58,6.50
2014,06,21,05,59,6.50
2014,06,21,06,00,6.50
2014,06,21,06,01,6.50
2014,06,21,06,02,6.50
2014,06,21,06,03,6.50
2014,06,21,06,04,6.50
2014,06,21,06,05,6.50
2014,06,21,06,06,6.50
2014,06,21,06,07,6.50
2014,06,21,06,08,6.50
2014,06,21,06,09,6.50
2014,06,21,06,10,6.50
2014,06,21,06,11,6.50
2014,06,21,06,12,6.50
2014,06,21,06,13,6.50
2014,06,21,06,14,6.60
2014,06,21,06,15,6.60
2014,06,21,06,16,6.60
2014,06,21,06,17,6.60
2014,06,21,06,18,6.60
2014,06,21,06,19,6.60
2014,06,21,06,20,6.60
2014,06,21,06,21,6.60
2014,06,21,06,22,6.60
2014,06,21,06,23,6.60
2014,06,21,06,24,6.60
2014,06,21,06,25,6.60
2014,06,21,06,26,6.60
2014,06,21,06,27,6.60
2014,06,21,06,28,6.60
2014,06,21,06,29,6.60
2014,06,21,06,30,6.60
2014,06,21,06,31,6.60
2014,06,21,06,32,6.60
2014,06,21,06,33,6.60
2014,06,21,06,34,6.70
2014,06,21,06,35,6.70
2014,06,21,06,36,6.70
2014,06,21,06,37,6.70
2014,06,21,06,38,6.80
2014,06,21,06,39,6.80
2014,06,21,06,40,6.80
2014,06,21,06,41,6.80
2014,06,21,06,42,6.80
2014,06,21,06,43,6.80
2014,06,21,06,44,6.80
2014,06,21,06,45,6.80
2014,06,21,06,46,6.90
2014,06,21,06,47,6.90
2014,06,21,06,48,6.90
2014,06,21,06,49,6.90
2014,06,21,06,50,6.90
2014,06,21,06,51,7.00
2014,06,21,06,52,7.00
2014,06,21,06,53,7.10
2014,06,21,06,54,7.10
2014,06,21,06,55,7.10
2014,06,21,06,56,7.10
2014,06,21,06,57,7.20
2014,06,21,06,58,7.20
2014,06,21,06,59,7.20
2014,06,21,07,00,7.20
2014,06,21,07,01,7.20
2014,06,21,07,02,7.30
2014,06,21,07,03,7.30
2014,06,21,07,04,7.30
2014,06,21,07,05,7.40
2014,06,21,07,06,7.40
2014,06,21,07,07,7.40
2014,06,21,07,08,7.50
2014,06,21,07,09,7.60
2014,06,21,07,10,7.60
2014,06,21,07,11,7.60
2014,06,21,07,12,7.70
2014,06,21,07,13,7.70
2014,06,21,07,14,7.70
2014,06,21,07,15,7.80
2014,06,21,07,16,7.80
2014,06,21,07,17,7.80
2014,06,21,07,18,7.80
2014,06,21,07,19,7.90
2014,06,21,07,20,7.90
2014,06,21,07,21,7.90
2014,06,21,07,22,7.90
2014,06,21,07,23,8.00
2014,06,21,07,24,8.00
2014,06,21,07,25,8.10
2014,06,21,07,26,8.10
2014,06,21,07,27,8.10
2014,06,21,07,28,8.10
2014,06,21,07,29,8.20
2014,06,21,07,30,8.20
2014,06,21,07,31,8.30
2014,06,21,07,32,8.30
2014,06,21,07,33,8.30
2014,06,21,07,34,8.40
2014,06,21,07,35,8.40
2014,06,21,07,36,8.50
2014,06,21,07,37,8.50
2014,06,21,07,38,8.60
2014,06,21,07,39,8.60
2014,06,21,07,40,8.60
2014,06,21,07,41,8.70
2014,06,21,07,42,8.70
2014,06,21,07,43,8.70
2014,06,21,07,44,8.80
2014,06,21,07,45,8.80
2014,06,21,07,46,8.90
2014,06,21,07,47,8.90
2014,06,21,07,48,9.00
2014,06,21,07,49,9.10
2014,06,21,07,50,9.10
2014,06,21,07,51,9.20
2014,06,21,07,52,9.30
2014,06,21,07,53,9.30
2014,06,21,07,54,9.40
2014,06,21,07,55,9.50
2014,06,21,07,56,9.60
2014,06,21,07,57,9.60
2014,06,21,07,58,9.70
2014,06,21,07,59,9.80
2014,06,21,08,00,9.90
2014,06,21,08,01,10.00
2014,06,21,08,02,10.00
2014,06,21,08,03,10.10
2014,06,21,08,04,10.20
2014,06,21,08,05,10.30
2014,06,21,08,06,10.30
2014,06,21,08,07,10.40
2014,06,21,08,08,10.50
2014,06,21,08,09,10.60
2014,06,21,08,10,10.60
2014,06,21,08,11,10.70
2014,06,21,08,12,10.80
2014,06,21,08,13,10.90
2014,06,21,08,14,11.00
2014,06,21,08,15,11.10
2014,06,21,08,16,11.20
2014,06,21,08,17,11.30
2014,06,21,08,18,11.40
2014,06,21,08,19,11.60
2014,06,21,08,20,11.70
2014,06,21,08,21,11.80
2014,06,21,08,22,11.90
2014,06,21,08,23,12.00
2014,06,21,08,24,12.10
2014,06,21,08,25,12.20
2014,06,21,08,26,12.30
2014,06,21,08,27,12.40
2014,06,21,08,28,12.50
2014,06,21,08,29,12.60
2014,06,21,08,30,12.70
2014,06,21,08,31,12.80
2014,06,21,08,32,12.90
2014,06,21,08,33,13.00
2014,06,21,08,34,13.10
2014,06,21,08,35,13.10
2014,06,21,08,36,13.20
2014,06,21,08,37,13.20
2014,06,21,08,38,13.20
2014,06,21,08,39,13.30
2014,06,21,08,40,13.30
2014,06,21,08,41,13.30
2014,06,21,08,42,13.40
2014,06,21,08,43,13.40
2014,06,21,08,44,13.40
2014,06,21,08,45,13.50
2014,06,21,08,46,13.50
2014,06,21,08,47,13.60
2014,06,21,08,48,13.60
2014,06,21,08,49,13.60
2014,06,21,08,50,13.60
2014,06,21,08,51,13.70
2014,06,21,08,52,13.80
2014,06,21,08,53,13.90
2014,06,21,08,54,14.00
2014,06,21,08,55,14.10
2014,06,21,08,56,14.10
2014,06,21,08,57,14.20
2014,06,21,08,58,14.20
2014,06,21,08,59,14.20
2014,06,21,09,00,14.20
2014,06,21,09,01,14.30
2014,06,21,09,02,14.30
2014,06,21,09,03,14.30
2014,06,21,09,04,14.40
2014,06,21,09,05,14.40
2014,06,21,09,06,14.50
2014,06,21,09,07,14.60
2014,06,21,09,08,14.60
2014,06,21,09,09,14.70
2014,06,21,09,10,14.70
2014,06,21,09,11,14.70
2014,06,21,09,12,14.70
2014,06,21,09,13,14.70
2014,06,21,09,14,14.70
2014,06,21,09,15,14.70
2014,06,21,09,16,14.70
2014,06,21,09,17,14.70
2014,06,21,09,18,14.70
2014,06,21,09,19,14.70
2014,06,21,09,20,14.80
2014,06,21,09,21,14.80
2014,06,21,09,22,14.90
2014,06,21,09,23,15.00
2014,06,21,09,24,15.00
2014,06,21,09,25,15.00
2014,06,21,09,26,15.00
2014,06,21,09,27,15.00
2014,06,21,09,28,15.00
2014,06,21,09,29,15.00
2014,06,21,09,30,15.00
2014,06,21,09,31,15.00
2014,06,21,09,32,15.00
2014,06,21,09,33,15.00
2014,06,21,09,34,15.00
2014,06,21,09,35,15.10
2014,06,21,09,36,15.00
2014,06,21,09,37,15.00
2014,06,21,09,38,15.10
2014,06,21,09,39,15.10
2014,06,21,09,40,15.20
2014,06,21,09,41,15.20
2014,06,21,09,42,15.20
2014,06,21,09,43,15.30
2014,06,21,09,44,15.30
2014,06,21,09,45,15.30
2014,06,21,09,46,15.30
2014,06,21,09,47,15.30
2014,06,21,09,48,15.40
2014,06,21,09,49,15.40
2014,06,21,09,50,15.40
2014,06,21,09,51,15.50
2014,06,21,09,52,15.60
2014,06,21,09,53,15.70
2014,06,21,09,54,15.80
2014,06,21,09,55,15.80
2014,06,21,09,56,15.90
2014,06,21,09,57,16.00
2014,06,21,09,58,16.00
2014,06,21,09,59,16.10
2014,06,21,10,00,16.20
2014,06,21,10,01,16.20
2014,06,21,10,02,16.30
2014,06,21,10,03,16.30
2014,06,21,10,04,16.40
2014,06,21,10,05,16.40
2014,06,21,10,06,16.40
2014,06,21,10,07,16.40
2014,06,21,10,08,16.40
2014,06,21,10,09,16.40
2014,06,21,10,10,16.40
2014,06,21,10,11,16.50
2014,06,21,10,12,16.50
2014,06,21,10,13,16.50
2014,06,21,10,14,16.50
2014,06,21,10,15,16.50
2014,06,21,10,16,16.50
2014,06,21,10,17,16.50
2014,06,21,10,18,16.50
2014,06,21,10,19,16.60
2014,06,21,10,20,16.60
2014,06,21,10,21,16.60
2014,06,21,10,22,16.60
2014,06,21,10,23,16.60
2014,06,21,10,24,16.60
2014,06,21,10,25,16.60
2014,06,21,10,26,16.60
2014,06,21,10,27,16.60
2014,06,21,10,28,16.70
2014,06,21,10,29,16.60
2014,06,21,10,30,16.60
2014,06,21,10,31,16.70
2014,06,21,10,32,16.80
2014,06,21,10,33,16.90
2014,06,21,10,34,17.00
2014,06,21,10,35,17.00
2014,06,21,10,36,17.10
2014,06,21,10,37,17.20
2014,06,21,10,38,17.30
2014,06,21,10,39,17.40
2014,06,21,10,40,17.40
2014,06,21,10,41,17.50
2014,06,21,10,42,17.50
2014,06,21,10,43,17.50
2014,06,21,10,44,17.50
2014,06,21,10,45,17.50
2014,06,21,10,46,17.50
2014,06,21,10,47,17.50
2014,06,21,10,48,17.50
2014,06,21,10,49,17.50
2014,06,21,10,50,17.60
2014,06,21,10,51,17.60
2014,06,21,10,52,17.60
2014,06,21,10,53,17.60
2014,06,21,10,54,17.60
2014,06,21,10,55,17.50
2014,06,21,10,56,17.50
2014,06,21,10,57,17.50
2014,06,21,10,58,17.50
2014,06,21,10,59,17.60
2014,06,21,11,00,17.60
2014,06,21,11,01,17.70
2014,06,21,11,02,17.70
2014,06,21,11,03,17.80
2014,06,21,11,04,17.80
2014,06,21,11,05,17.80
2014,06,21,11,06,17.80
2014,06,21,11,07,17.90
2014,06,21,11,08,17.90
2014,06,21,11,09,17.90
2014,06,21,11,10,18.00
2014,06,21,11,11,18.00
2014,06,21,11,12,18.10
2014,06,21,11,13,18.10
2014,06,21,11,14,18.20
2014,06,21,11,15,18.30
2014,06,21,11,16,18.30
2014,06,21,11,17,18.40
2014,06,21,11,18,18.40
2014,06,21,11,19,18.50
2014,06,21,11,20,18.40
2014,06,21,11,21,18.40
2014,06,21,11,22,18.30
2014,06,21,11,23,18.30
2014,06,21,11,24,18.30
2014,06,21,11,25,18.30
2014,06,21,11,26,18.30
2014,06,21,11,27,18.30
2014,06,21,11,28,18.30
2014,06,21,11,29,18.40
2014,06,21,11,30,18.50
2014,06,21,11,31,18.50
2014,06,21,11,32,18.60
2014,06,21,11,33,18.70
2014,06,21,11,34,18.70
2014,06,21,11,35,18.60
2014,06,21,11,36,18.70
2014,06,21,11,37,18.70
2014,06,21,11,38,18.80
2014,06,21,11,39,18.70
2014,06,21,11,40,18.70
2014,06,21,11,41,18.70
2014,06,21,11,42,18.80
2014,06,21,11,43,18.80
2014,06,21,11,44,18.70
2014,06,21,11,45,18.70
2014,06,21,11,46,18.60
2014,06,21,11,47,18.60
2014,06,21,11,48,18.60
2014,06,21,11,49,18.50
2014,06,21,11,50,18.50
2014,06,21,11,51,18.40
2014,06,21,11,52,18.40
2014,06,21,11,53,18.30
2014,06,21,11,54,18.30
2014,06,21,11,55,18.30
2014,06,21,11,56,18.20
2014,06,21,11,57,18.20
2014,06,21,11,58,18.20
2014,06,21,11,59,18.20
2014,06,21,12,00,18.30
2014,06,21,12,01,18.40
2014,06,21,12,02,18.40
2014,06,21,12,03,18.50
2014,06,21,12,04,18.50
2014,06,21,12,05,18.60
2014,06,21,12,06,18.60
2014,06,21,12,07,18.60
2014,06,21,12,08,18.60
2014,06,21,12,09,18.60
2014,06,21,12,10,18.60
2014,06,21,12,11,18.60
2014,06,21,12,12,18.60
2014,06,21,12,13,18.60
2014,06,21,12,14,18.60
2014,06,21,12,15,18.60
2014,06,21,12,16,18.70
2014,06,21,12,17,18.70
2014,06,21,12,18,18.60
2014,06,21,12,19,18.70
2014,06,21,12,20,18.70
2014,06,21,12,21,18.70
2014,06,21,12,22,18.70
2014,06,21,12,23,18.70
2014,06,21,12,24,18.70
2014,06,21,12,25,18.60
2014,06,21,12,26,18.40
2014,06,21,12,27,18.40
2014,06,21,12,28,18.30
2014,06,21,12,29,18.30
2014,06,21,12,30,18.30
2014,06,21,12,31,18.30
2014,06,21,12,32,18.40
2014,06,21,12,33,18.40
2014,06,21,12,34,18.40
2014,06,21,12,35,18.50
2014,06,21,12,36,18.50
2014,06,21,12,37,18.50
2014,06,21,12,38,18.50
2014,06,21,12,39,18.40
2014,06,21,12,40,18.40
2014,06,21,12,41,18.50
2014,06,21,12,42,18.50
2014,06,21,12,43,18.50
2014,06,21,12,44,18.50
2014,06,21,12,45,18.50
2014,06,21,12,46,18.50
2014,06,21,12,47,18.60
2014,06,21,12,48,18.70
2014,06,21,12,49,18.70
2014,06,21,12,50,18.70
2014,06,21,12,51,18.70
2014,06,21,12,52,18.70
2014,06,21,12,53,18.70
2014,06,21,12,54,18.70
2014,06,21,12,55,18.80
2014,06,21,12,56,18.80
2014,06,21,12,57,18.80
2014,06,21,12,58,18.90
2014,06,21,12,59,18.90
2014,06,21,13,00,19.00
2014,06,21,13,01,19.00
2014,06,21,13,02,19.10
2014,06,21,13,03,19.10
2014,06,21,13,04,19.20
2014,06,21,13,05,19.20
2014,06,21,13,06,19.20
2014,06,21,13,07,19.20
2014,06,21,13,08,19.30
2014,06,21,13,09,19.30
2014,06,21,13,10,19.40
2014,06,21,13,11,19.40
2014,06,21,13,12,19.40
2014,06,21,13,13,19.30
2014,06,21,13,14,19.30
2014,06,21,13,15,19.30
2014,06,21,13,16,19.20
2014,06,21,13,17,19.20
2014,06,21,13,18,19.20
2014,06,21,13,19,19.20
2014,06,21,13,20,19.20
2014,06,21,13,21,19.20
2014,06,21,13,22,19.30
2014,06,21,13,23,19.30
2014,06,21,13,24,19.30
2014,06,21,13,25,19.30
2014,06,21,13,26,19.40
2014,06,21,13,27,19.50
2014,06,21,13,28,19.40
2014,06,21,13,29,19.50
2014,06,21,13,30,19.50
2014,06,21,13,31,19.60
2014,06,21,13,32,19.60
2014,06,21,13,33,19.60
2014,06,21,13,34,19.70
2014,06,21,13,35,19.70
2014,06,21,13,36,19.70
2014,06,21,13,37,19.60
2014,06,21,13,38,19.60
2014,06,21,13,39,19.60
2014,06,21,13,40,19.60
2014,06,21,13,41,19.60
2014,06,21,13,42,19.50
2014,06,21,13,43,19.50
2014,06,21,13,44,19.50
2014,06,21,13,45,19.50
2014,06,21,13,46,19.50
2014,06,21,13,47,19.40
2014,06,21,13,48,19.40
2014,06,21,13,49,19.40
2014,06,21,13,50,19.30
2014,06,21,13,51,19.30
2014,06,21,13,52,19.30
2014,06,21,13,53,19.30
2014,06,21,13,54,19.40
2014,06,21,13,55,19.50
2014,06,21,13,56,19.60
2014,06,21,13,57,19.70
2014,06,21,13,58,19.70
2014,06,21,13,59,19.70
2014,06,21,14,00,19.70
2014,06,21,14,01,19.70
2014,06,21,14,02,19.70
2014,06,21,14,03,19.60
2014,06,21,14,04,19.60
2014,06,21,14,05,19.60
2014,06,21,14,06,19.70
2014,06,21,14,07,19.80
2014,06,21,14,08,19.80
2014,06,21,14,09,19.90
2014,06,21,14,10,19.90
2014,06,21,14,11,19.90
2014,06,21,14,12,19.90
2014,06,21,14,13,19.90
2014,06,21,14,14,19.90
2014,06,21,14,15,19.90
2014,06,21,14,16,19.90
2014,06,21,14,17,19.90
2014,06,21,14,18,19.90
2014,06,21,14,19,20.00
2014,06,21,14,20,20.00
2014,06,21,14,21,20.00
2014,06,21,14,22,20.10
2014,06,21,14,23,20.00
2014,06,21,14,24,20.00
2014,06,21,14,25,20.00
2014,06,21,14,26,20.00
2014,06,21,14,27,19.90
2014,06,21,14,28,19.90
2014,06,21,14,29,19.80
2014,06,21,14,30,19.80
2014,06,21,14,31,19.80
2014,06,21,14,32,19.80
2014,06,21,14,33,19.80
2014,06,21,14,34,19.80
2014,06,21,14,35,19.80
2014,06,21,14,36,19.90
2014,06,21,14,37,20.00
2014,06,21,14,38,20.10
2014,06,21,14,39,20.20
2014,06,21,14,40,20.30
2014,06,21,14,41,20.30
2014,06,21,14,42,20.30
2014,06,21,14,43,20.30
2014,06,21,14,44,20.30
2014,06,21,14,45,20.20
2014,06,21,14,46,20.20
2014,06,21,14,47,20.10
2014,06,21,14,48,20.10
2014,06,21,14,49,20.10
2014,06,21,14,50,20.10
2014,06,21,14,51,20.10
2014,06,21,14,52,20.10
2014,06,21,14,53,20.00
2014,06,21,14,54,20.00
2014,06,21,14,55,19.90
2014,06,21,14,56,19.80
2014,06,21,14,57,19.80
2014,06,21,14,58,19.70
2014,06,21,14,59,19.70
2014,06,21,15,00,19.70
2014,06,21,15,01,19.70
2014,06,21,15,02,19.70
2014,06,21,15,03,19.70
2014,06,21,15,04,19.70
2014,06,21,15,05,19.70
2014,06,21,15,06,19.70
2014,06,21,15,07,19.70
2014,06,21,15,08,19.70
2014,06,21,15,09,19.70
2014,06,21,15,10,19.70
2014,06,21,15,11,19.70
2014,06,21,15,12,19.80
2014,06,21,15,13,19.90
2014,06,21,15,14,20.10
2014,06,21,15,15,20.20
2014,06,21,15,16,20.20
2014,06,21,15,17,20.10
2014,06,21,15,18,20.10
2014,06,21,15,19,20.10
2014,06,21,15,20,20.10
2014,06,21,15,21,20.00
2014,06,21,15,22,20.00
2014,06,21,15,23,20.00
2014,06,21,15,24,20.00
2014,06,21,15,25,20.00
2014,06,21,15,26,20.10
2014,06,21,15,27,20.10
2014,06,21,15,28,20.10
2014,06,21,15,29,20.20
2014,06,21,15,30,20.20
2014,06,21,15,31,20.20
2014,06,21,15,32,20.20
2014,06,21,15,33,20.20
2014,06,21,15,34,20.20
2014,06,21,15,35,20.20
2014,06,21,15,36,20.20
2014,06,21,15,37,20.30
2014,06,21,15,38,20.40
2014,06,21,15,39,20.50
2014,06,21,15,40,20.60
2014,06,21,15,41,20.60
2014,06,21,15,42,20.60
2014,06,21,15,43,20.50
2014,06,21,15,44,20.50
2014,06,21,15,45,20.50
2014,06,21,15,46,20.50
2014,06,21,15,47,20.60
2014,06,21,15,48,20.60
2014,06,21,15,49,20.60
2014,06,21,15,50,20.70
2014,06,21,15,51,20.70
2014,06,21,15,52,20.70
2014,06,21,15,53,20.70
2014,06,21,15,54,20.70
2014,06,21,15,55,20.60
2014,06,21,15,56,20.60
2014,06,21,15,57,20.60
2014,06,21,15,58,20.60
2014,06,21,15,59,20.60
2014,06,21,16,00,20.60
2014,06,21,16,01,20.50
2014,06,21,16,02,20.50
2014,06,21,16,03,20.40
2014,06,21,16,04,20.30
2014,06,21,16,05,20.40
2014,06,21,16,06,20.40
2014,06,21,16,07,20.50
2014,06,21,16,08,20.60
2014,06,21,16,09,20.60
2014,06,21,16,10,20.70
2014,06,21,16,11,20.70
2014,06,21,16,12,20.70
2014,06,21,16,13,20.70
2014,06,21,16,14,20.70
2014,06,21,16,15,20.60
2014,06,21,16,16,20.60
2014,06,21,16,17,20.60
2014,06,21,16,18,20.60
2014,06,21,16,19,20.60
2014,06,21,16,20,20.60
2014,06,21,16,21,20.50
2014,06,21,16,22,20.50
2014,06,21,16,23,20.50
2014,06,21,16,24,20.50
2014,06,21,16,25,20.40
2014,06,21,16,26,20.40
2014,06,21,16,27,20.40
2014,06,21,16,28,20.50
2014,06,21,16,29,20.50
2014,06,21,16,30,20.50
2014,06,21,16,31,20.50
2014,06,21,16,32,20.50
2014,06,21,16,33,20.60
2014,06,21,16,34,20.60
2014,06,21,16,35,20.70
2014,06,21,16,36,20.80
2014,06,21,16,37,20.80
2014,06,21,16,38,20.80
2014,06,21,16,39,20.90
2014,06,21,16,40,20.90
2014,06,21,16,41,21.00
2014,06,21,16,42,21.10
2014,06,21,16,43,21.10
2014,06,21,16,44,21.10
2014,06,21,16,45,21.10
2014,06,21,16,46,21.10
2014,06,21,16,47,21.10
2014,06,21,16,48,21.10
2014,06,21,16,49,21.10
2014,06,21,16,50,21.00
2014,06,21,16,51,21.00
2014,06,21,16,52,20.90
2014,06,21,16,53,20.80
2014,06,21,16,54,20.80
2014,06,21,16,55,20.80
2014,06,21,16,56,20.80
2014,06,21,16,57,20.80
2014,06,21,16,58,20.80
2014,06,21,16,59,20.80
2014,06,21,17,00,20.80
2014,06,21,17,01,20.80
2014,06,21,17,02,20.80
2014,06,21,17,03,20.80
2014,06,21,17,04,20.80
2014,06,21,17,05,20.80
2014,06,21,17,06,20.80
2014,06,21,17,07,20.80
2014,06,21,17,08,20.80
2014,06,21,17,09,20.80
2014,06,21,17,10,20.80
2014,06,21,17,11,20.70
2014,06,21,17,12,20.70
2014,06,21,17,13,20.70
2014,06,21,17,14,20.70
2014,06,21,17,15,20.70
2014,06,21,17,16,20.70
2014,06,21,17,17,20.70
2014,06,21,17,18,20.80
2014,06,21,17,19,20.80
2014,06,21,17,20,20.80
2014,06,21,17,21,20.80
2014,06,21,17,22,20.80
2014,06,21,17,23,20.70
2014,06,21,17,24,20.70
2014,06,21,17,25,20.70
2014,06,21,17,26,20.60
2014,06,21,17,27,20.60
2014,06,21,17,28,20.60
2014,06,21,17,29,20.50
2014,06,21,17,30,20.50
2014,06,21,17,31,20.50
2014,06,21,17,32,20.50
2014,06,21,17,33,20.50
2014,06,21,17,34,20.50
2014,06,21,17,35,20.50
2014,06,21,17,36,20.60
2014,06,21,17,37,20.50
2014,06,21,17,38,20.50
2014,06,21,17,39,20.40
2014,06,21,17,40,20.40
2014,06,21,17,41,20.50